SL-12 R/B(2), 20266

Orbit data source: Space-Track

SL-12 R/B(2), 20266 is space debris in GEO originally from a launch on Thu, 28 Sep 1989 UTC launched from the Tyuratam Missile And Space Complex (TTMTR). Debris objects in space refer to the collection of defunct objects orbiting the Earth. Examples of debris include non-operational satellites, rocket bodies, and fragments generated from explosions, collisions, or faulty payload assembly.

Loading next visibility...
SL-12 R/B(2) details
Identifier
20266, 1989-081D
Orbit
GEO
Last TLE update22 hours ago
Origin
Flag of CISRVSN (CIS)
ManufacturerNPO Energiya
MissionSpacecraft
Bus & MotorBLOK DM, Unknown motor
Mass2,440 kg wet, 2,440 kg dry
Launch date (UTC)
1989-09-28 (35 years ago)
Launch vehicleUnknown
Launch site
Tyuratam Missile And Space Complex (TTMTR)
Object type
Payload
Rocket body
Debris
Shape & HBRCyl, 6.27 m
Radar Cross Section23.597 m², Large (>1 m²)

Expand to show TLE details & history

TLE from 22 hours ago
0 SL-12 R/B(2)
1 20266U 89081D   25035.24514532 -.00000278  00000-0  00000-0 0  9991
2 20266  12.4370 336.2923 0026820 115.1135  81.3730  1.00606124114343
Epoch: 2025-02-04T05:53Z
Definitive object data (Epoch: 2025-02-04T05:53:00.555Z)
Latitude-3.56399°
Longitude-50.17708°
Altitude35,676.141 km
Speed3.079 km/s
True Right ascension11h 30m 54s
True Declination-3° 33' 37"
Sunlit
Object was in daylight at TLE epoch
Visualization TLE readout
Latitude1.66049°
Longitude-74.1184°
Altitude35,630.794 km
Speed3.083 km/s
Apparent Right ascension10h 18m 54s
Apparent Declination-4° 08' 00"
Sunlit
Object is in daylight
Visualization observer readout
Local Sidereal Time06:08:54
Azimuth111.63° ESE
Elevation17.878°
Doppler factor1
Orbital elements
Apogee altitude35,806.965 km
Perigee altitude35,581.289 km
Semi-major axis42,072.264 km
Eccentricity0.002682
Inclination12.437°
RAAN336.2923°
Arg. of periapsis115.1135°
True anomaly81.67701°
Mean anomaly81.373°
Eccentric anomaly81.52499°
Mean motion0.25151 °/min
BSTARUnknown
Orbital period1431.37 mins
Loading historical data...
20266 neighbors
Authenticating...
Loading maneuver chart data...
Loading historical data...
Loading historical data...
Loading historical data...
Loading historical data...
Loading historical data...
Loading historical data...
Loading historical data...

SL-12 R/B(2) Visibility forecast

Observer location: undefined°, undefined

Span
Click to sort rows by Start time (UTC) header in descending order
Start Az.
Max El. time (UTC)
Max El. Az.
Max El.
End time (UTC)
End Az.
222 mins2025-02-05 04:07:06.957Z111.644° ESE2025-02-05 04:07:06.957Z111.644° ESE17.059°2025-02-05 07:49:06.957Z120.301° SE
854 mins2025-02-05 13:53:06.957Z118.526° SE2025-02-05 21:56:06.957Z102.557° ESE23.216°2025-02-06 04:07:06.957Z111.119° ESE
|